This is the latest recevied weather packets stored in our database for station/object NW0017. If no packets are shown the sender has not sent any weather packets the latest 1 day(s).
| Time | Temp. | Humidity | Pressure | Rain* | Wind** | Luminosity | Snow |
|---|---|---|---|---|---|---|---|
| 1778063816 | 30.56° C | 89% | 1004 hPa | 0 mm | 2.68 m/s, 48° | 80 W/m² | - |
| 1778063756 | 30.56° C | 89% | 1004 hPa | 0 mm | 2.68 m/s, 80° | 87 W/m² | - |
| 1778063696 | 30.56° C | 89% | 1004 hPa | 0 mm | 2.68 m/s, 23° | 79 W/m² | - |
| 1778063636 | 30.56° C | 89% | 1004 hPa | 0 mm | 4.02 m/s, 63° | 69 W/m² | - |
| 1778063576 | 30.56° C | 88% | 1003.9 hPa | 0 mm | 4.02 m/s, 38° | 66 W/m² | - |
| 1778063516 | 30.56° C | 88% | 1003.9 hPa | 0 mm | 2.68 m/s, 51° | 66 W/m² | - |
| 1778063456 | 30.56° C | 89% | 1003.9 hPa | 0 mm | 2.68 m/s, 40° | 68 W/m² | - |
| 1778063396 | 30.56° C | 89% | 1003.9 hPa | 0 mm | 2.68 m/s, 42° | 71 W/m² | - |
| 1778063336 | 30.56° C | 88% | 1003.9 hPa | 0 mm | 3.13 m/s, 65° | 76 W/m² | - |
| 1778063276 | 30.56° C | 88% | 1003.9 hPa | 0 mm | 3.58 m/s, 66° | 77 W/m² | - |
| 1778063216 | 30.56° C | 88% | 1003.9 hPa | 0 mm | 3.58 m/s, 51° | 75 W/m² | - |
| 1778063156 | 30.56° C | 88% | 1003.9 hPa | 0 mm | 3.13 m/s, 62° | 72 W/m² | - |
| 1778063096 | 30.56° C | 88% | 1004 hPa | 0 mm | 2.68 m/s, 55° | 70 W/m² | - |
| 1778063036 | 30.56° C | 88% | 1004 hPa | 0 mm | 3.58 m/s, 52° | 70 W/m² | - |
| 1778062976 | 30.56° C | 87% | 1004 hPa | 0 mm | 2.68 m/s, 43° | 69 W/m² | - |
| 1778062916 | 30.56° C | 87% | 1004 hPa | 0 mm | 3.13 m/s, 60° | 69 W/m² | - |
| 1778062856 | 30.56° C | 87% | 1004 hPa | 0 mm | 3.58 m/s, 72° | 70 W/m² | - |
| 1778062796 | 30.56° C | 86% | 1004 hPa | 0 mm | 2.68 m/s, 50° | 70 W/m² | - |
| 1778062736 | 30.56° C | 86% | 1004 hPa | 0 mm | 4.47 m/s, 59° | 71 W/m² | - |
| 1778062676 | 30.56° C | 86% | 1004 hPa | 0 mm | 4.02 m/s, 51° | 71 W/m² | - |
| 1778062616 | 30.56° C | 85% | 1004.1 hPa | 0 mm | 3.58 m/s, 34° | 72 W/m² | - |
| 1778062556 | 30.56° C | 85% | 1004.1 hPa | 0 mm | 3.13 m/s, 69° | 72 W/m² | - |
| 1778062496 | 30.56° C | 85% | 1004.1 hPa | 0 mm | 3.58 m/s, 64° | 73 W/m² | - |
| 1778062436 | 30.56° C | 85% | 1004.1 hPa | 0 mm | 4.02 m/s, 71° | 74 W/m² | - |
| 1778062376 | 30.56° C | 85% | 1004.1 hPa | 0 mm | 4.02 m/s, 53° | 75 W/m² | - |
* Rain latest hour (hover to see other rain measurements)
** Current wind speed in m/s (hover to see current wind gust speed)